THURAYA-2

Last updated on Tue Oct 08 2024 00:02:37 GMT+0000 (Coordinated Universal Time)

1 27825U 03026A 24280.97971757 .00000138 00000+0 00000+0 0 9993 2 27825 7.8839 33.9447 0001916 148.6506 230.2323 1.00272858 78157
UTC large
Height (km)
Speed (km/s)
/
Latitude / Longitude
Inclination (degrees)
Orbital Period (minutes)
Azimuth
Elevation
Range (km)
Doppler Factor

Next 0 passes for location: London (51.5072 / 0.1276)

Sorry there are no passes over London.